This demonstration page uses our WeatherBlox Daily Observations layout. Learn more.

Left ArrowRight Arrow

40.97296, -117.73568

Hourly Observations for August 21, 2020

Temp ( °F °C ) Dew Point ( °F °C ) Humidity (%) Winds ( mph kmh ) Pressure ( in mb ) Visibility ( mi km ) Precip ( " mm )
12:56 am 00:56 Cloudy with Haze 55 12.8 25 -3.9 31 31 SSE 6 9 29.85 1011 6 10 0.00 0.00
1:56 am 01:56 Cloudy with Haze 53 11.7 26 -3.3 35 35 E 3 6 29.85 1011 5 8 0.00 0.00
2:56 am 02:56 Cloudy with Haze 53 11.7 26 -3.3 35 35 SE 5 7 29.85 1011 6 10 0.00 0.00
3:56 am 03:56 Cloudy with Haze 54 12.2 26 -3.3 34 34 Calm 29.86 1011 5 8 0.00 0.00
4:56 am 04:56 Cloudy with Haze 50 10 26 -3.3 39 39 SE 3 6 29.87 1012 5 8 0.00 0.00
5:56 am 05:56 Cloudy with Haze 49 9.4 28 -2.2 44 44 Calm 29.88 1012 5 8 0.00 0.00
6:56 am 06:56 Hazy 51 10.6 26 -3.3 38 38 Calm 29.90 1012 3 5 0.00 0.00
7:56 am 07:56 Mostly Cloudy with Haze 61 16.1 28 -2.2 29 29 Calm 29.91 1013 3 5 0.00 0.00
8:24 am 08:24 Hazy 64 17.8 28 -2.2 26 26 Calm 29.86 1011 3 4 0.00 0.00
8:56 am 08:56 Mostly Cloudy with Haze 68 20 30 -1.1 24 24 NE 5 7 29.91 1013 3 4 0.00 0.00
9:56 am 09:56 Mostly Cloudy with Haze 75 23.9 28 -2.2 18 18 Calm 29.91 1013 3 4 0.00 0.00
10:56 am 10:56 Hazy 84 28.9 26 -3.3 12 12 Calm 29.88 1012 3 4 0.00 0.00
11:56 am 11:56 Hazy 88 31.1 23 -5 9 9 Calm 29.86 1011 3 4 0.00 0.00
12:32 pm 12:32 Hazy 92 33.3 24 -4.4 8 8 NNE 3 6 29.59 1002 3 5 0.00 0.00
12:56 pm 12:56 Hazy 92 33.3 25 -3.9 9 9 Calm 29.85 1011 3 5 0.00 0.00
1:56 pm 13:56 Hazy 96 35.6 25 -3.9 8 8 W 14 22 29.83 1010 4 6 0.00 0.00
2:12 pm 14:12 Hazy 96 35.6 25 -3.9 8 8 W 14 22 29.53 1000 5 8 0.00 0.00
2:56 pm 14:56 Hazy 97 36.1 25 -3.9 7 7 WNW 15 24 29.80 1009 5 8 0.00 0.00
3:56 pm 15:56 Hazy 98 36.7 22 -5.6 6 6 W 14 22 29.78 1009 6 10 0.00 0.00
4:56 pm 16:56 Mostly Cloudy 97 36.1 20 -6.7 6 6 W 16 26 29.78 1009 7 11 0.00 0.00
5:56 pm 17:56 Mostly Cloudy with Haze 94 34.4 18 -7.8 6 6 WNW 10 17 29.80 1009 3 5 0.00 0.00
6:09 pm 18:09 Mostly Cloudy with Haze 93 33.9 16 -8.9 6 6 WNW 9 15 29.53 1000 3 4 0.00 0.00
6:19 pm 18:19 Mostly Cloudy with Haze 93 33.9 17 -8.3 6 6 WNW 9 15 29.53 1000 3 5 0.00 0.00
6:33 pm 18:33 Cloudy with Haze 91 32.8 16 -8.9 6 6 WNW 7 11 29.54 1000 3 4 0.00 0.00
6:56 pm 18:56 Cloudy with Haze 88 31.1 19 -7.2 8 8 WNW 6 9 29.80 1009 3 4 0.00 0.00
7:22 pm 19:22 Cloudy with Haze 81 27.2 20 -6.7 10 10 N 5 7 29.63 1003 3 5 0.00 0.00
7:29 pm 19:29 Cloudy with Haze 80 26.7 20 -6.7 10 10 WNW 5 7 29.64 1004 3 4 0.00 0.00
7:56 pm 19:56 Cloudy with Haze 77 25 20 -6.7 12 12 Calm 29.82 1010 3 5 0.00 0.00
8:41 pm 20:41 Cloudy with Haze 73 22.8 18 -7.8 12 12 WNW 6 9 29.71 1006 3 4 0.00 0.00
8:56 pm 20:56 Cloudy with Haze 70 21.1 16 -8.9 12 12 W 10 17 29.85 1011 3 4 0.00 0.00
9:56 pm 21:56 Cloudy with Haze 74 23.3 17 -8.3 11 11 NNE 3 6 29.85 1011 3 4 0.00 0.00
10:56 pm 22:56 Cloudy with Haze 75 23.9 17 -8.3 11 11 NNE 5 7 29.84 1011 3 4 0.00 0.00
11:56 pm 23:56 Cloudy with Haze 64 17.8 19 -7.2 18 18 Calm 29.87 1012 3 4 0.00 0.00

Powered by AerisWeather